Regional Weather Roundup
Issued by NWS Cleveland, OH

Home | Current Version | Previous Version | Graphics & Text | Print | Product List | Glossary On
Versions: 1 2 3 4 5 6 7 8 9 10 11 12 13 14 15 16 17 18 19 20 21 22 23 24 25 26 27 28 29 30 31 32 33 34 35 36 37 38 39 40 41 42 43 44 45 46 47 48 49 50
000
ASUS41 KCLE 010512
RWRCLE
OHIO REGIONAL WEATHER ROUNDUP
NATIONAL WEATHER SERVICE WILMINGTON, OH
100 AM EDT SUN MAY 01 2016

NOTE: "FAIR" INDICATES FEW OR NO CLOUDS BELOW 12,000 FEET WITH NO
SIGNIFICANT WEATHER AND/OR OBSTRUCTIONS TO VISIBILITY.

OHZ001>008-015>018-024>027-034-035-043-044-010600-
   NORTHWEST OHIO

CITY           SKY/WX    TMP DP  RH WIND       PRES   REMARKS
DEFIANCE       LGT RAIN  50  47  89 NE8       29.90S FOG
FINDLAY        RAIN      53  49  86 E6        29.88F FOG
TOLEDO EXPRESS LGT RAIN  49  48  97 NE8       29.92R
TOLEDO EXEC    LGT RAIN  50  48  93 NE5       29.93R FOG
LIMA           LGT RAIN  56  55  97 S9        29.87F FOG
$$

OHZ009>014-019>023-028>033-038-089-010600-
   NORTHEAST OHIO

CITY           SKY/WX    TMP DP  RH WIND       PRES   REMARKS
CLE-HOPKINS    CLOUDY    56  53  90 SE9       29.92F
CLE-LAKEFRONT  LGT RAIN  56  53  90 SE7       29.90F
CUY CO. ARPT   NOT AVBL
LORAIN-ELYRIA  LGT RAIN  54  51  90 S8        29.90F FOG
ASHTABULA      LGT RAIN  51  49  92 SE14      29.96F
AKRON-CANTON   CLOUDY    56  53  90 S10       29.92F FOG
WOOSTER        CLOUDY    54  53  97 S7        29.92F
MANSFIELD      CLOUDY    54  54 100 S10       29.90F
YOUNGSTOWN     RAIN      52  50  93 E14       29.94F FOG
$$

OHZ042-051>053-060>062-070>072-077>081-010600-
  SOUTHWEST OHIO

CITY           SKY/WX    TMP DP  RH WIND       PRES   REMARKS
CINC-COVINGTON LGT RAIN  61  61 100 S10       29.90F
CINC-LUNKEN    LGT RAIN  60  60 100 S7        29.91S
HAMILTON       LGT RAIN  62  60  93 VRB3      29.90F
DAYTON         CLOUDY    58  58 100 S14       29.90S FOG
WRIGHT-PAT AFB CLOUDY    59  59 100 SW7       29.89S
DAYTON GENERAL CLOUDY    59  57  93 S13       29.89S
WILMINGTON     CLOUDY    58  57  97 S12       29.90S
$$

OHZ036-037-039>041-045>050-054>059-063>069-073>076-082>088-010600-
  CENTRAL AND SOUTHEAST OHIO

CITY           SKY/WX    TMP DP  RH WIND       PRES   REMARKS
COLUMBUS       CLOUDY    55  55 100 S3        29.90F FOG
OSU AIRPORT    CLOUDY    58  57  97 S8        29.89F
BOLTON FIELD   CLOUDY    57  57 100 S9        29.90F
RICKENBACK AFB MOCLDY    57  56  97 S7        29.90F
NEWARK         CLOUDY    60  57  89 S8        29.90F
MARION         CLOUDY    56  55  97 S9        29.89F FOG
LANCASTER      CLOUDY    59  57  93 SE9       29.91F
ZANESVILLE     LGT RAIN  61  58  90 S5        29.93F
NEW PHILLY     LGT RAIN  56  54  93 SE3       29.93F
$$



USA.gov is the U.S. government's official web portal to all federal, state and local government web resources and services.